This is the latest recevied weather packets stored in our database for station/object KC9EGS. If no packets are shown the sender has not sent any weather packets the latest 10 day(s).
| Time | Temp. | Humidity | Pressure | Rain* | Wind** | Luminosity | Snow |
|---|---|---|---|---|---|---|---|
| 1778005524 | 5.56° C | 49% | 1004 hPa | 0 mm | - | - | - |
| 1778005005 | 5.56° C | 44% | 1004 hPa | 0 mm | - | - | - |
| 1778004923 | 5.56° C | 44% | 1004 hPa | 0 mm | - | - | - |
| 1778004323 | 5.56° C | 45% | 1003.9 hPa | 0 mm | - | - | - |
| 1778004106 | 5.56° C | 44% | 1003.9 hPa | 0 mm | - | - | - |
| 1778003723 | 6.11° C | 44% | 1003.6 hPa | 0 mm | - | - | - |
| 1778003206 | 6.11° C | 46% | 1003.6 hPa | 0 mm | - | - | - |
| 1778003123 | 6.11° C | 46% | 1003.6 hPa | 0 mm | - | - | - |
| 1778002523 | 5.56° C | 45% | 1003.7 hPa | 0 mm | - | - | - |
| 1778002306 | 6.11° C | 44% | 1003.7 hPa | 0 mm | - | - | - |
| 1778001924 | 6.11° C | 43% | 1003.5 hPa | 0 mm | - | - | - |
| 1778001406 | 5.56° C | 44% | 1003.5 hPa | 0 mm | - | - | - |
| 1778001323 | 5.56° C | 43% | 1003.5 hPa | 0 mm | - | - | - |
| 1778000723 | 5.56° C | 44% | 1003.5 hPa | 0 mm | - | - | - |
| 1778000505 | 5.56° C | 45% | 1003.5 hPa | 0 mm | - | - | - |
| 1778000118 | 5.56° C | 46% | 1003.4 hPa | 0 mm | - | - | - |
| 1777999522 | 5.56° C | 45% | 1003.4 hPa | 0 mm | - | - | - |
| 1777999218 | 5.56° C | 46% | 1003.3 hPa | 0 mm | - | - | - |
| 1777998923 | 5.56° C | 46% | 1003.3 hPa | 0 mm | - | - | - |
| 1777998317 | 5.56° C | 48% | 1003.1 hPa | 0 mm | - | - | - |
| 1777997723 | 5° C | 47% | 1003.1 hPa | 0 mm | - | - | - |
| 1777997418 | 5° C | 46% | 1003.1 hPa | 0 mm | - | - | - |
| 1777997123 | 5.56° C | 46% | 1003.1 hPa | 0 mm | - | - | - |
| 1777996519 | 5.56° C | 47% | 1002.9 hPa | 0 mm | - | - | - |
| 1777995925 | 5° C | 51% | 1002.9 hPa | 0 mm | - | - | - |
* Rain latest hour (hover to see other rain measurements)
** Current wind speed in m/s (hover to see current wind gust speed)